PYXIS-R GRUS-3A

基本信息
目录编号:
64579
目录名称:
GRUS-3ALPHA
国际标识:
2025-135BD
轨道中心:
EARTH
卫星名称:
PYXIS-R GRUS-3A
卫星全名:
PYXIS-R GRUS-3A
卫星状态:
在轨 (已飞行128 天)
发射日期:
2025-06-23 UTC
国别 :
日本 (JP)
星等 :
--
轨道信息
数据来源 国际轨道数据
星历时间: 2025-10-28T23:01:03+0800
16小时前
查看轨道信息
半长轴: 6969.162km
偏心率: 0.000406
轨道倾角: 97.760°
近地点辐角 57.542°
升交点赤经 53.978°
平近点角 302.619°
近地点: 588.197km
远地点: 593.857km
周期: 96.501分钟
每日圈数: 14.922171
详细信息
使用方式:
暂无
2D轨道图
3D轨道图
轨道高度分析图
轨道倾角分析图
轨道综合分析图
查看轨道综合分析图